CW5183 Weather Reports


time (UTC)temp
C
wind
direction
speed
KPH
gust
KPH
rain 1hr
cm
rain 24hr
cm
rain mn
cm
humidity
%
barometer
mb
20260906113018 21 123 3.2 14.5 0.00 0.00 0.00 89 1018.6
20260906111516 21 115 4.8 14.5 0.00 0.00 0.00 88 1018.5
20260906110014 21 87 4.8 14.5 0.00 0.00 0.00 88 1018.4
20260906104511 22 61 6.4 16.1 0.00 0.00 0.00 88 1018.1
20260906103014 22 67 4.8 12.9 0.00 0.00 0.00 87 1017.9
20260906101509 22 103 3.2 12.9 0.00 0.00 0.00 87 1017.9
20260906100009 22 69 4.8 12.9 0.00 0.00 0.00 86 1017.8
20260906094506 22 81 4.8 12.9 0.00 0.00 0.00 86 1017.7
20260906093006 22 80 4.8 12.9 0.00 0.00 0.00 86 1017.7
20260906091505 22 79 4.8 11.3 0.00 0.00 0.00 86 1017.6
20260906090004 22 83 6.4 12.9 0.00 0.00 0.00 86 1017.4
20260906084504 22 100 3.2 11.3 0.00 0.00 0.00 87 1017.4
20260906083003 22 88 3.2 12.9 0.00 0.00 0.00 86 1017.4
20260906081501 22 88 6.4 12.9 0.00 0.00 0.00 85 1017.4
20260906080000 22 98 6.4 12.9 0.00 0.00 0.00 84 1017.6
20260906074600 22 74 3.2 16.1 0.00 0.00 0.00 86 1017.5
20260906073059 22 65 4.8 14.5 0.00 0.00 0.00 86 1017.5
20260906071558 22 86 1.6 14.5 0.00 0.00 0.00 86 1017.7
20260906070058 22 64 4.8 11.3 0.00 0.00 0.00 87 1017.6
20260906064557 22 62 3.2 16.1 0.00 0.00 0.00 87 1017.7
20260906063057 22 48 4.8 12.9 0.00 0.00 0.00 86 1017.6
20260906061555 22 19 6.4 14.5 0.00 0.00 0.00 87 1017.6
20260906060127 22 15 9.7 16.1 0.00 0.00 0.00 87 1017.7
20260906054606 22 53 4.8 12.9 0.00 0.00 0.00 89 1017.5
20260906053051 22 47 9.7 17.7 0.00 0.00 0.00 90 1017.4
20260906051549 22 39 6.4 17.7 0.00 0.00 0.00 90 1017.1
20260906050047 22 84 6.4 17.7 0.00 0.00 0.00 90 1017.2
20260906044546 22 68 8.0 19.3 0.00 0.00 0.00 91 1016.9
20260906043050 22 5 9.7 22.5 0.00 0.00 0.00 91 1016.8
20260906041545 22 35 11.3 20.9 0.00 0.00 0.00 91 1016.7
20260906040045 22 55 9.7 20.9 0.00 0.00 0.00 90 1016.6
20260906034558 22 61 12.9 22.5 0.00 0.00 0.00 90 1016.6
20260906033045 22 51 8.0 20.9 0.00 0.00 0.00 90 1016.6
20260906031543 22 61 12.9 20.9 0.00 0.00 0.00 90 1016.6
20260906030044 22 49 12.9 27.4 0.00 0.00 0.00 89 1016.5
20260906024541 22 342 6.4 20.9 0.00 0.00 0.00 89 1016.4
20260906023041 22 34 9.7 25.7 0.00 0.00 0.00 89 1016.4
20260906021543 22 40 6.4 20.9 0.00 0.00 0.00 89 1016.7
20260906020040 22 22 9.7 19.3 0.00 0.00 0.00 88 1016.7
20260906014547 22 77 9.7 20.9 0.00 0.00 0.00 88 1016.7
20260906013038 22 36 11.3 22.5 0.00 0.00 0.00 88 1016.7
20260906011537 22 40 12.9 20.9 0.00 0.00 0.00 88 1016.5
20260906010041 22 24 8.0 19.3 0.00 0.00 0.00 88 1016.2
20260906004536 22 339 11.3 29.0 0.00 0.00 0.00 89 1015.9
20260906003034 22 30 11.3 22.5 0.00 0.00 0.00 88 1015.8
20260906001547 22 26 11.3 25.7 0.00 0.00 0.00 88 1015.8
20260906000035 22 19 11.3 25.7 0.00 0.00 0.00 88 1015.8
20260905234532 22 28 9.7 25.7 0.00 0.00 0.00 88 1015.8
20260905233032 22 23 17.7 27.4 0.00 0.00 0.00 87 1016.0
20260905231530 22 41 11.3 27.4 0.00 0.00 0.00 88 1015.7
20260905230034 22 19 11.3 27.4 0.00 0.00 0.00 88 1015.6
20260905224527 23 19 16.1 29.0 0.00 0.00 0.00 88 1015.6
20260905223040 23 360 11.3 24.1 0.00 0.00 0.00 87 1015.7
20260905221523 23 34 9.7 25.7 0.00 0.00 0.00 87 1015.5
20260905220024 24 5 9.7 19.3 0.00 0.00 0.00 86 1015.5
20260905214520 24 355 11.3 22.5 0.00 0.00 0.00 86 1015.3
20260905213018 24 26 11.3 24.1 0.00 0.00 0.00 86 1015.1
20260905211520 24 40 12.9 22.5 0.00 0.00 0.00 84 1015.1
20260905210023 24 35 12.9 25.7 0.00 0.00 0.00 86 1015.1
20260905204517 25 313 9.7 20.9 0.00 0.00 0.00 83 1015.1
20260905203017 25 36 11.3 29.0 0.00 0.00 0.00 83 1015.1
20260905201522 25 15 12.9 22.5 0.00 0.00 0.00 83 1015.1
20260905200016 25 5 9.7 20.9 0.00 0.00 0.00 82 1015.2
20260905194514 25 46 16.1 27.4 0.00 0.00 0.00 82 1015.2
20260905193018 25 42 9.7 22.5 0.00 0.00 0.00 82 1015.3
20260905191512 25 331 11.3 22.5 0.00 0.00 0.00 83 1015.4
20260905190011 25 14 12.9 27.4 0.00 0.00 0.00 82 1015.4
20260905184517 25 5 11.3 25.7 0.00 0.00 0.00 83 1015.5
20260905183010 25 9 14.5 25.7 0.00 0.00 0.00 82 1015.5
20260905181509 25 9 12.9 22.5 0.00 0.00 0.00 84 1015.5
20260905180010 25 333 9.7 17.7 0.00 0.00 0.00 84 1015.4
20260905174508 25 88 8.0 19.3 0.00 0.00 0.00 85 1015.4
20260905173012 24 24 11.3 24.1 0.00 0.00 0.00 86 1015.3
20260905171507 25 49 12.9 20.9 0.00 0.00 0.00 85 1015.4
20260905170006 25 42 12.9 24.1 0.00 0.00 0.00 84 1015.5
20260905164505 25 44 12.9 25.7 0.00 0.00 0.00 84 1015.5
20260905163002 25 16 8.0 20.9 0.00 0.00 0.00 86 1015.5
20260905161602 24 351 9.7 19.3 0.00 0.00 0.00 87 1015.5
20260905160059 24 47 11.3 19.3 0.00 0.00 0.00 87 1015.5
20260905154603 24 70 11.3 20.9 0.00 0.00 0.00 88 1015.2
20260905153056 25 333 14.5 22.5 0.00 0.00 0.00 87 1015.1
20260905151604 24 15 11.3 20.9 0.00 0.00 0.00 89 1015.0
20260905150051 25 40 9.7 16.1 0.00 0.00 0.00 86 1014.9